This is the latest recevied weather packets stored in our database for station/object N3OZD-10. If no packets are shown the sender has not sent any weather packets the latest 10 day(s).
| Time | Temp. | Humidity | Pressure | Rain* | Wind** | Luminosity | Snow |
|---|---|---|---|---|---|---|---|
| 1778189542 | 17.22° C | 47% | 1008.1 hPa | 0 mm | - | - | - |
| 1778189241 | 17.22° C | 47% | 1008 hPa | 0 mm | - | - | - |
| 1778188940 | 17.22° C | 46% | 1008.1 hPa | 0 mm | - | - | - |
| 1778188640 | 17.78° C | 46% | 1008.1 hPa | 0 mm | - | - | - |
| 1778188341 | 17.78° C | 38% | 1008.3 hPa | 0 mm | - | - | - |
| 1778188042 | 17.78° C | 38% | 1008.3 hPa | 0 mm | - | - | - |
| 1778187443 | 17.78° C | 38% | 1008.2 hPa | 0 mm | - | - | - |
| 1778187140 | 17.78° C | 38% | 1008.2 hPa | 0 mm | - | - | - |
| 1778186540 | 17.78° C | 40% | 1008.2 hPa | 0 mm | - | - | - |
| 1778186240 | 17.78° C | 41% | 1008.1 hPa | 0 mm | - | - | - |
| 1778185942 | 17.78° C | 38% | 1008.1 hPa | 0 mm | - | - | - |
| 1778185646 | 17.22° C | 41% | 1008.1 hPa | 0 mm | - | - | - |
| 1778185042 | 17.22° C | 38% | 1008 hPa | 0 mm | - | - | - |
| 1778184740 | 17.22° C | 41% | 1008 hPa | 0 mm | - | - | - |
| 1778184440 | 16.67° C | 42% | 1008.2 hPa | 0 mm | - | - | - |
| 1778184140 | 16.67° C | 39% | 1008.2 hPa | 0 mm | - | - | - |
| 1778183840 | 17.22° C | 44% | 1008.3 hPa | 0 mm | - | - | - |
| 1778183540 | 16.67° C | 43% | 1008.2 hPa | 0 mm | - | - | - |
| 1778183240 | 17.22° C | 50% | 1008.4 hPa | 0 mm | - | - | - |
| 1778182940 | 16.67° C | 49% | 1008.4 hPa | 0 mm | - | - | - |
| 1778182645 | 16.67° C | 48% | 1008.5 hPa | 0 mm | - | - | - |
| 1778182343 | 17.22° C | 49% | 1008.5 hPa | 0 mm | - | - | - |
| 1778182044 | 17.22° C | 39% | 1008.6 hPa | 0 mm | - | - | - |
| 1778181740 | 17.22° C | 37% | 1008.7 hPa | 0 mm | - | - | - |
| 1778181440 | 16.67° C | 44% | 1008.8 hPa | 0 mm | - | - | - |
* Rain latest hour (hover to see other rain measurements)
** Current wind speed in m/s (hover to see current wind gust speed)